Location: North Evanston
(42.0634°N, 87.6976°W)
Time: 05:46:50
(UTC+00:00)

Vanguard 3 - All Passes

Search period start: 10 May 2026 00:00
Search period end: 20 May 2026 00:00
Orbit: 507 x 3204 km, 33.3° (Epoch: 8 May)

Date Brightness Start Highest point End Pass type
(mag) Time Alt. Az. Time Alt. Az. Time Alt. Az.
10 May - 00:48:08 10° W 01:02:59 51° SSW 01:11:46 10° SE daylight
10 May - 03:05:32 10° W 03:13:40 22° SW 03:19:17 10° S visible
10 May - 16:52:55 10° SSE 16:58:38 12° SE 17:04:25 10° ESE daylight
10 May - 18:55:16 10° SSW 19:11:25 35° SSE 19:26:04 10° E daylight
10 May - 21:07:02 10° SW 21:25:42 56° SSE 21:39:30 10° E daylight
10 May - 23:22:28 10° W 23:39:54 60° S 23:50:46 10° ESE daylight
11 May - 01:39:20 10° W 01:52:10 39° SSW 02:00:03 10° SE visible
11 May - 04:00:34 10° WSW 04:01:46 10° SW 04:02:54 10° SW visible
11 May - 17:34:55 10° S 17:47:45 23° SE 18:00:42 10° E daylight
11 May - 19:43:28 10° SW 20:01:21 47° SSE 20:16:39 10° E daylight
11 May - 21:57:11 10° WSW 22:16:01 61° S 22:29:04 10° E daylight
12 May - 00:13:28 10° W 00:29:42 53° SSW 00:39:36 10° SE daylight
12 May - 02:31:01 10° W 02:40:49 25° SW 02:47:27 10° S visible
12 May - 16:19:23 10° SE 16:24:47 12° SE 16:30:22 10° ESE daylight
12 May - 18:21:24 10° SSW 18:37:13 36° SE 18:52:41 10° E daylight
12 May - 20:32:46 10° SW 20:51:35 57° SSE 21:06:40 10° E daylight
12 May - 22:47:50 10° W 23:06:14 61° S 23:18:21 10° ESE daylight
13 May - 01:04:41 10° W 01:19:01 41° SSW 01:27:58 10° SE daylight
13 May - 03:24:47 10° WSW 03:28:58 13° SW 03:32:29 10° SSW visible
13 May - 17:01:21 10° S 17:13:42 23° SE 17:26:53 10° E daylight
13 May - 19:09:32 10° SW 19:27:06 48° SSE 19:43:25 10° E daylight
13 May - 21:22:48 10° WSW 21:41:59 63° S 21:56:22 10° E daylight
13 May - 23:38:47 10° W 23:56:11 55° SSW 00:07:19 10° SE daylight
14 May - 01:56:23 10° W 02:07:47 28° SW 02:15:29 10° SSE visible
14 May - 15:46:25 10° SE 15:50:58 11° SE 15:55:45 10° ESE daylight
14 May - 17:47:48 10° SSW 18:03:00 36° SE 18:19:02 10° E daylight
14 May - 19:58:43 10° WSW 20:17:20 58° SSE 20:33:36 10° E daylight
14 May - 22:13:20 10° W 22:32:21 63° S 22:45:47 10° ESE daylight
15 May - 00:29:58 10° W 00:45:40 43° SSW 00:55:46 10° SE daylight
15 May - 02:49:45 10° W 02:56:01 15° SW 03:01:02 10° SSW visible
15 May - 16:28:03 10° S 16:39:41 23° SE 16:52:47 10° E daylight
15 May - 18:35:51 10° SW 18:52:46 48° SSE 19:09:56 10° E daylight
15 May - 20:48:37 10° WSW 21:07:47 64° S 21:23:27 10° E daylight
15 May - 23:04:11 10° W 23:22:27 56° SSW 23:34:51 10° SE daylight
16 May - 01:21:39 10° W 01:34:33 30° SW 01:43:21 10° SSE visible
16 May - 15:14:12 10° SE 15:17:14 11° SE 15:20:25 10° ESE daylight
16 May - 17:14:27 10° SSW 17:28:49 36° SE 17:45:07 10° E daylight
16 May - 19:24:54 10° WSW 19:42:58 58° SSE 20:00:18 10° E daylight
16 May - 21:39:00 10° W 21:58:16 64° S 22:13:01 10° ESE daylight
16 May - 23:55:17 10° W 00:12:04 45° SSW 00:23:24 10° SE daylight
17 May - 02:14:48 10° W 02:22:53 17° SW 02:29:13 10° SSW visible
17 May - 15:55:02 10° S 16:05:45 22° SE 16:18:25 10° E daylight
17 May - 18:02:24 10° SW 18:18:26 48° SSE 18:36:12 10° E daylight
17 May - 20:14:39 10° WSW 20:33:27 64° S 20:50:19 10° E daylight
17 May - 22:29:42 10° W 22:48:30 58° SSW 23:02:13 10° ESE daylight
18 May - 00:46:54 10° W 01:01:07 32° SW 01:11:04 10° SSE daylight
18 May - 16:41:21 10° SSW 16:54:42 35° SE 17:10:57 10° E daylight
18 May - 18:51:20 10° WSW 19:08:34 58° SSE 19:26:44 10° E daylight
18 May - 21:04:52 10° W 21:24:00 64° S 21:40:02 10° ESE daylight
18 May - 23:20:42 10° W 23:38:17 47° SSW 23:50:51 10° SE daylight
19 May - 01:39:52 10° W 01:49:35 19° SW 01:57:08 10° S visible
19 May - 15:22:15 10° S 15:31:56 21° SE 15:43:50 10° E daylight
19 May - 17:29:13 10° SW 17:44:10 48° SSE 18:02:12 10° E daylight
19 May - 19:40:56 10° WSW 19:59:03 64° S 20:16:56 10° E daylight
19 May - 21:55:25 10° W 22:14:22 58° SSW 22:29:22 10° ESE daylight
